FLOCK 2P-9 (41610 NORAD) Tracking and Keplerian Element Data

This shows tracking and keplerian element data for the satellite.

Feedback or suggestion? Click here.




ElementValue
Catalog41610
NameFLOCK 2P-9
Epoch Orbit9148
Epoch Day46.15635907
Epoch Year2018
RAAN111.7246
Inclination97.4289
Eccentricity0.0009225
Argument of Perigee306.9982
Mean Anonmoly53.041
Mean Motion15.23933315
Decay Rate1.508E-05
L11 41610U 16040M 18046.15635907 .00001508 00000-0 65309-4 0 9999
L22 41610 97.4289 111.7246 0009225 306.9982 53.0410 15.23933315 91480

Live tracking and technical data element details for FLOCK 2P-9 (NORAD 41610). FLOCK 2P-9 can be tracked NOW for your location showing map with azimuth and elevation plus other details from your city location.

Track the satellite on the map from your city or location and see movement details for azimuth, elevation, latitude, longitude, range, height, and movement on the map or in text.







IsCatalogInMostPopularTable: catalog: 41610, numindb: 98
Update: records affected: 1



GetName: 41610 FLOCK 2P-9

Hit Count: updated at: Tue, 25 Sep 2018 15:35:10 GMT